Milwaukee, WI

5:33 AM CST on December 13, 2019 (GMT -0600)
Gen Mitchell International

Weather History for KMKE - November, 2019

Change the Weather History Date:

Saturday, November 16, 2019

  Actual Average Record
Temperature  
Mean Temperature 36 °F 39 °F  
Max Temperature 39 °F 46 °F 70 °F (1931)
Min Temperature 33 °F 32 °F 4 °F (1959)
Degree Days  
Heating Degree Days 29 26  
Month to date heating degree days 548 362  
Since 1 July heating degree days 1039 947  
Cooling Degree Days 0 0  
Month to date cooling degree days 0 0  
Year to date cooling degree days 727 641  
Moisture  
Dew Point 28 °F    
Average Humidity 74    
Maximum Humidity 82    
Minimum Humidity 69    
Precipitation  
Precipitation 0.00 in 0.09 in 1.09 in (1961)
Month to date precipitation 0.72 1.45  
Year to date precipitation 42.64 31.46  
Snow  
Snow 0.00 in 0.10 in 0.80 in (2014)
Month to date snowfall 7.2 0.5  
Since 1 July snowfall 13.3 0.8  
Since 1 September snowfall 13.3 0.8  
Snow Depth 2.0 in    
Sea Level Pressure  
Sea Level Pressure 30.37 in    
Wind  
Wind Speed 9 mph ()    
Max Wind Speed 15 mph    
Max Gust Speed 19 mph    
Visibility 10.0 miles    
Events      
T = Trace of Precipitation, MM = Missing Value Source: Averaged Metar Reports

Daily Weather History Graph

Daily Weather History Graph

Search for Another Location

Airport or City:

Astronomy

Nov. 16, 2019 Rise Set
Actual Time 6:44 AM CST 4:27 PM CST
Civil Twilight 6:14 AM CST 4:57 PM CST
Nautical Twilight 5:39 AM CST 5:32 PM CST
Astronomical Twilight 5:06 AM CST 6:05 PM CST
Moon 7:57 PM CST (11/16) 10:41 AM CST (11/16)
Length of Visible Light 10h 43m
Length of Day
9h 42m
Waning Gibbous, 82% of the Moon is Illuminated
Nov 16
Waning Gibbous
Nov 19
Last Quarter
Nov 26
New
Dec 4
First Quarter
Dec 11
Full

Hourly Weather History & Observations

Time (CST) Temp. Windchill Dew Point Humidity Pressure Visibility Wind Dir Wind Speed Gust Speed Precip Events Conditions
12:52 AM 34.0 °F 26.6 °F 25.0 °F 70% 30.45 in 10.0 mi East 9.2 mph - N/A   Scattered Clouds
1:52 AM 35.1 °F 26.4 °F 26.1 °F 70% 30.44 in 10.0 mi East 12.7 mph - N/A   Scattered Clouds
2:52 AM 35.1 °F 26.4 °F 26.1 °F 70% 30.44 in 10.0 mi ESE 12.7 mph - N/A   Scattered Clouds
3:52 AM 35.1 °F 26.9 °F 26.1 °F 70% 30.44 in 10.0 mi ESE 11.5 mph - N/A   Partly Cloudy
4:52 AM 34.0 °F 26.6 °F 27.0 °F 75% 30.45 in 10.0 mi ESE 9.2 mph - N/A   Mostly Cloudy
5:52 AM 36.0 °F 28.5 °F 28.0 °F 73% 30.45 in 10.0 mi SE 10.4 mph - N/A   Mostly Cloudy
6:52 AM 36.0 °F 28.0 °F 28.0 °F 73% 30.46 in 10.0 mi SE 11.5 mph - N/A   Mostly Cloudy
7:52 AM 36.0 °F 27.5 °F 28.9 °F 76% 30.46 in 10.0 mi SE 12.7 mph - N/A   Mostly Cloudy
8:52 AM 36.0 °F 28.5 °F 30.0 °F 79% 30.45 in 10.0 mi SE 10.4 mph - N/A   Mostly Cloudy
9:52 AM 37.0 °F 28.9 °F 30.0 °F 76% 30.45 in 10.0 mi SE 12.7 mph - N/A   Mostly Cloudy
10:52 AM 37.0 °F 29.3 °F 30.0 °F 76% 30.44 in 10.0 mi SE 11.5 mph - N/A   Mostly Cloudy
11:52 AM 37.9 °F 32.7 °F 30.0 °F 73% 30.42 in 10.0 mi SE 6.9 mph - N/A   Mostly Cloudy
12:52 PM 37.9 °F 31.5 °F 28.9 °F 70% 30.38 in 10.0 mi South 9.2 mph - N/A   Mostly Cloudy
1:43 PM 37.9 °F 29.6 °F 30.0 °F 73% 30.33 in 10.0 mi SE 13.8 mph - N/A   Mostly Cloudy
1:52 PM 39.0 °F 31.4 °F 30.0 °F 70% 30.35 in 10.0 mi SE 12.7 mph - N/A   Mostly Cloudy
2:52 PM 37.9 °F 30.0 °F 30.0 °F 73% 30.34 in 10.0 mi SE 12.7 mph - N/A   Scattered Clouds
3:52 PM 37.0 °F 29.3 °F 28.9 °F 73% 30.32 in 10.0 mi SE 11.5 mph - N/A   Scattered Clouds
4:52 PM 36.0 °F 30.3 °F 28.9 °F 76% 30.31 in 10.0 mi SE 6.9 mph - N/A   Mostly Cloudy
5:52 PM 36.0 °F 30.3 °F 30.0 °F 79% 30.30 in 10.0 mi SE 6.9 mph - N/A   Overcast
6:52 PM 36.0 °F 29.6 °F 28.9 °F 76% 30.29 in 10.0 mi SE 8.1 mph - N/A   Mostly Cloudy
7:52 PM 36.0 °F 29.0 °F 28.0 °F 73% 30.26 in 10.0 mi SSE 9.2 mph - N/A   Partly Cloudy
8:52 PM 36.0 °F 30.3 °F 28.9 °F 76% 30.26 in 10.0 mi SSE 6.9 mph - N/A   Partly Cloudy
9:52 PM 36.0 °F 29.0 °F 28.0 °F 73% 30.25 in 10.0 mi SSE 9.2 mph - N/A   Partly Cloudy
10:52 PM 36.0 °F 29.0 °F 28.0 °F 73% 30.22 in 10.0 mi SSE 9.2 mph - N/A   Partly Cloudy
11:52 PM 34.0 °F 28.8 °F 28.0 °F 79% 30.23 in 10.0 mi South 5.8 mph - N/A   Scattered Clouds